SV2BBO-2 Thessaloniki GR current weather conditions

sailwx.info

Wind from 131 at 3 knots gusting 3

Air temperature 28.3° C
Dewpoint 0.1° C

Last reported at 2016-Aug-27 17:48 UTC.
Time now 2016-Aug-27 18:50 UTC

Location: N 40°38' E 022°57'.
View on Google Maps.

See reports from other nearby stations

  
Tides and Currents Weather Stations Pressure Air Temp Water Temp Dewpoint Dewpoint Depression Visibility Wind Speed Wind Dir Waves Ship Positions
date/time (UTC)wind fromknots sea level pressurealtimeterstation pressurevisibilityair tempwater tempwave heightnotes
2016-Aug-27 17:48 131 3 gusting 3 28.3
2016-Aug-27 17:38 147 3 gusting 4 28.9
2016-Aug-27 17:28 117 3 gusting 3 28.9
2016-Aug-27 17:18 144 2 gusting 2 28.9
2016-Aug-27 17:08 168 2 gusting 4 28.9
2016-Aug-27 16:58 137 2 gusting 5 28.9
2016-Aug-27 16:48 185 3 gusting 6 29.4
2016-Aug-27 16:38 177 2 gusting 3 28.9
2016-Aug-27 16:27 151 3 gusting 3 29.4
2016-Aug-27 16:17 167 4 gusting 4 29.4
2016-Aug-27 16:07 174 4 gusting 5 29.4
2016-Aug-27 15:57 153 3 gusting 6 29.4
2016-Aug-27 15:47 191 3 gusting 5 29.4
2016-Aug-27 15:37 180 3 gusting 4 29.4
2016-Aug-27 15:27 206 4 gusting 7 29.4
2016-Aug-27 15:17 195 5 gusting 7 29.4
2016-Aug-27 15:07 180 4 gusting 6 29.4
2016-Aug-27 14:57 192 6 gusting 6 29.4
2016-Aug-27 14:47 228 5 gusting 6 29.4
2016-Aug-27 14:37 225 3 gusting 6 29.4
2016-Aug-27 14:27 195 3 gusting 5 29.4
2016-Aug-27 14:17 236 4 gusting 4 29.4
2016-Aug-27 14:07 211 4 gusting 6 29.4
2016-Aug-27 13:57 197 5 gusting 5 29.4
2016-Aug-27 13:47 198 4 gusting 6 29.4
2016-Aug-27 13:37 194 5 gusting 6 30.0
2016-Aug-27 13:27 198 4 gusting 5 30.0
2016-Aug-27 13:17 202 4 gusting 6 30.0
2016-Aug-27 13:07 202 5 gusting 6 30.0
2016-Aug-27 12:57 216 4 gusting 5 30.0
2016-Aug-27 12:47 237 4 gusting 7 29.4
2016-Aug-27 12:37 215 4 gusting 6 29.4
2016-Aug-27 12:27 258 5 gusting 7 29.4
2016-Aug-27 12:17 237 4 gusting 5 30.0
2016-Aug-27 12:07 221 4 gusting 6 30.0
2016-Aug-27 11:57 216 4 gusting 6 29.4
2016-Aug-27 11:47 246 4 gusting 6 29.4
2016-Aug-27 11:37 256 5 gusting 6 29.4
2016-Aug-27 11:27 247 4 gusting 8 28.9
2016-Aug-27 11:17 208 3 gusting 5 28.9
2016-Aug-27 11:07 264 4 gusting 6 29.4
2016-Aug-27 10:57 239 3 gusting 5 28.9
2016-Aug-27 10:47 234 4 gusting 6 28.9
2016-Aug-27 10:37 271 5 gusting 6 28.9
2016-Aug-27 10:27 178 3 gusting 9 28.9
2016-Aug-27 10:17 261 4 gusting 7 28.3
2016-Aug-27 10:07 266 6 gusting 6 28.9
2016-Aug-27 09:57 231 5 gusting 4 28.9
2016-Aug-27 09:47 231 5 gusting 10 28.9
2016-Aug-27 09:37 256 4 gusting 5 29.4
2016-Aug-27 09:27 050 3 gusting 6 28.9
2016-Aug-27 09:17 318 3 gusting 4 29.4
2016-Aug-27 09:07 217 2 gusting 6 29.4
2016-Aug-27 08:57 207 4 gusting 5 28.9
2016-Aug-27 08:47 286 3 gusting 7 28.9
2016-Aug-27 08:37 231 4 gusting 5 29.4
2016-Aug-27 08:27 057 5 gusting 5 29.4
2016-Aug-27 08:17 298 2 gusting 3 29.4
2016-Aug-27 08:07 357 2 gusting 4 29.4
2016-Aug-27 07:57 133 29.4
2016-Aug-27 07:47 049 2 gusting 3 28.9
2016-Aug-27 07:37 048 4 gusting 5 28.9
2016-Aug-27 07:27 098 3 gusting 5 27.8
2016-Aug-27 07:17 079 2 gusting 4 27.2
2016-Aug-27 07:07 054 2 gusting 10 27.2
2016-Aug-27 06:57 058 2 gusting 2 27.2
2016-Aug-27 06:47 292 27.2
2016-Aug-27 06:37 293 26.7
2016-Aug-27 06:27 221 2 gusting 3 26.7
2016-Aug-27 06:17 300 3 gusting 2 26.7
2016-Aug-27 06:07 325 2 gusting 3 26.7
2016-Aug-27 05:57 357 2 gusting 2 26.7
2016-Aug-27 05:47 357 2 gusting 3 26.7
2016-Aug-27 05:37 062 26.7
2016-Aug-27 05:27 063 26.1
2016-Aug-27 05:17 063 2 gusting 3 26.1
2016-Aug-27 05:07 061 0 gusting 2 25.6
2016-Aug-27 04:57 088 25.6
2016-Aug-27 04:47 043 25.6
2016-Aug-27 04:37 049 25.6
2016-Aug-27 04:27 073 3 gusting 4 25.6
2016-Aug-27 04:17 105 25.0
2016-Aug-27 04:07 081 2 gusting 3 25.0
2016-Aug-27 03:57 082 3 gusting 4 25.0
2016-Aug-27 03:47 045 2 gusting 6 25.0
2016-Aug-27 03:37 042 2 gusting 3 25.6
2016-Aug-27 03:27 114 2 gusting 3 25.6
2016-Aug-27 03:17 240 2 gusting 4 25.6
2016-Aug-27 03:07 043 2 gusting 4 25.6
2016-Aug-27 02:57 193 2 gusting 4 25.6
2016-Aug-27 02:47 307 3 gusting 4 25.6
2016-Aug-27 02:37 100 2 gusting 3 25.6
2016-Aug-27 02:27 145 2 gusting 4 26.1
2016-Aug-27 02:17 256 5 gusting 3 26.1
2016-Aug-27 02:07 168 2 gusting 5 26.1
2016-Aug-27 01:57 177 4 gusting 6 26.1
2016-Aug-27 01:47 116 2 gusting 3 26.1
2016-Aug-27 01:37 220 26.1
2016-Aug-27 01:27 082 3 gusting 3 26.1
2016-Aug-27 01:17 005 2 gusting 3 26.7
2016-Aug-27 01:07 184 3 gusting 3 26.7
2016-Aug-27 00:57 085 2 gusting 5 26.7
2016-Aug-27 00:49 016 3 gusting 4 26.7
2016-Aug-27 00:37 337 3 gusting 5 26.7
2016-Aug-27 00:27 309 3 gusting 4 26.1
2016-Aug-27 00:17 033 6 gusting 9 26.1
2016-Aug-27 00:07 056 8 gusting 5 26.1
2016-Aug-26 23:57 037 5 gusting 12 26.1
2016-Aug-26 23:47 089 7 gusting 7 26.7
2016-Aug-26 23:37 114 5 gusting 14 26.7
2016-Aug-26 23:27 134 6 gusting 9 26.7
2016-Aug-26 23:17 079 4 gusting 9 26.7
2016-Aug-26 23:07 216 7 gusting 6 26.7
2016-Aug-26 22:57 025 5 gusting 4 26.7
2016-Aug-26 22:47 111 4 gusting 11 26.7
2016-Aug-26 22:37 074 6 gusting 8 27.2
2016-Aug-26 22:27 060 5 gusting 5 27.2
2016-Aug-26 22:17 130 5 gusting 9 27.2
2016-Aug-26 22:07 099 4 gusting 6 27.8
2016-Aug-26 21:57 074 6 gusting 7 27.8
2016-Aug-26 21:47 076 5 gusting 4 27.8
2016-Aug-26 21:37 132 6 gusting 6 27.2
2016-Aug-26 21:27 078 5 gusting 7 27.8
2016-Aug-26 21:17 103 5 gusting 6 27.2
2016-Aug-26 21:07 036 27.2
2016-Aug-26 20:57 196 27.2
2016-Aug-26 20:47 196 2 gusting 3 27.2
2016-Aug-26 20:37 188 3 gusting 4 27.8
2016-Aug-26 20:27 232 0 gusting 3 28.3
2016-Aug-26 20:17 295 28.3
2016-Aug-26 20:07 295 2 27.8
2016-Aug-26 19:57 294 3 gusting 5 27.8
2016-Aug-26 19:47 001 3 gusting 4 28.3
2016-Aug-26 19:37 059 3 gusting 4 28.3
2016-Aug-26 19:27 109 28.3
2016-Aug-26 19:17 110 28.3
2016-Aug-26 19:07 110 2 28.3
2016-Aug-26 18:57 101 28.3
2016-Aug-26 18:47 101 1 28.3
2016-Aug-26 18:37 102 28.3
2016-Aug-26 18:27 086 2 gusting 3 28.3
2016-Aug-26 18:17 114 3 gusting 3 28.3
2016-Aug-26 18:07 075 2 gusting 3 28.9
2016-Aug-26 17:57 135 0 gusting 3 28.9
2016-Aug-26 17:47 135 2 28.9
2016-Aug-26 17:37 151 2 gusting 6 28.9
2016-Aug-26 17:27 122 2 gusting 2 29.4
2016-Aug-26 17:17 162 4 gusting 6 29.4
2016-Aug-26 17:07 148 4 gusting 4 29.4
2016-Aug-26 16:57 165 4 gusting 6 29.4
2016-Aug-26 16:47 164 3 gusting 5 30.0
2016-Aug-26 16:37 198 2 gusting 5 30.0
2016-Aug-26 16:27 196 6 gusting 7 29.4
2016-Aug-26 16:17 204 5 gusting 6 30.0
2016-Aug-26 16:07 197 3 gusting 6 30.0
2016-Aug-26 15:57 168 3 gusting 4 30.6
2016-Aug-26 15:47 195 4 gusting 6 30.0
2016-Aug-26 15:37 161 3 gusting 6 30.0
2016-Aug-26 15:27 211 2 gusting 3 30.6
2016-Aug-26 15:17 187 5 gusting 6 30.6
2016-Aug-26 15:07 177 5 gusting 5 30.6
2016-Aug-26 14:57 196 4 gusting 5 30.6
2016-Aug-26 14:47 186 5 gusting 5 30.6
2016-Aug-26 14:37 207 5 gusting 6 30.6
2016-Aug-26 14:27 197 5 gusting 6 30.6
2016-Aug-26 14:17 200 5 gusting 8 30.6
2016-Aug-26 14:07 216 4 gusting 7 30.6
2016-Aug-26 13:57 192 6 gusting 8 30.0
2016-Aug-26 13:47 219 6 gusting 5 30.6
2016-Aug-26 13:37 199 4 gusting 6 30.6
2016-Aug-26 13:27 197 4 gusting 5 30.6
2016-Aug-26 13:17 224 6 gusting 7 30.6
2016-Aug-26 13:07 225 4 gusting 5 30.0
2016-Aug-26 12:57 208 5 gusting 5 30.6
2016-Aug-26 12:47 246 4 gusting 6 30.6
2016-Aug-26 12:37 231 4 gusting 8 30.0
2016-Aug-26 12:27 260 4 gusting 6 30.0
2016-Aug-26 12:17 231 4 gusting 7 30.0
2016-Aug-26 12:07 189 5 gusting 6 30.0
2016-Aug-26 11:57 211 6 gusting 5 30.0
2016-Aug-26 11:47 253 4 gusting 8 30.0
2016-Aug-26 11:37 225 3 gusting 5 30.0
2016-Aug-26 11:27 265 5 gusting 8 30.0
2016-Aug-26 11:17 200 4 gusting 7 29.4
2016-Aug-26 11:07 261 4 gusting 7 29.4
2016-Aug-26 10:57 252 6 gusting 6 29.4
2016-Aug-26 10:47 237 5 gusting 6 29.4
2016-Aug-26 10:37 217 4 gusting 4 29.4
2016-Aug-26 10:27 253 4 gusting 6 30.0
2016-Aug-26 10:17 292 2 gusting 2 30.0
2016-Aug-26 10:07 211 4 gusting 8 30.0
2016-Aug-26 09:57 217 6 gusting 7 30.0
2016-Aug-26 09:47 217 3 gusting 3 29.4
2016-Aug-26 09:37 243 5 gusting 6 28.9
2016-Aug-26 09:27 236 3 gusting 4 28.3
2016-Aug-26 09:17 230 4 gusting 6 28.3
2016-Aug-26 09:07 241 5 gusting 6 28.9
2016-Aug-26 08:57 250 5 gusting 7 28.9
2016-Aug-26 08:47 238 6 gusting 5 28.9
2016-Aug-26 08:37 265 3 gusting 7 29.4
2016-Aug-26 08:27 247 4 gusting 5 30.0
2016-Aug-26 08:17 213 4 gusting 6 30.0
2016-Aug-26 08:07 215 4 gusting 7 30.0
2016-Aug-26 07:57 202 6 gusting 7 30.0
2016-Aug-26 07:47 218 5 gusting 6 30.0
2016-Aug-26 07:37 090 30.0
2016-Aug-26 07:27 066 2 gusting 4 29.4
2016-Aug-26 07:17 170 2 gusting 3 28.3
2016-Aug-26 07:07 292 2 gusting 2 28.3
2016-Aug-26 06:57 291 3 gusting 4 27.8
2016-Aug-26 06:47 288 27.8
2016-Aug-26 06:37 326 27.8
2016-Aug-26 06:27 307 2 gusting 2 27.8
2016-Aug-26 06:17 300 27.8
2016-Aug-26 06:07 337 1 gusting 2 28.3
2016-Aug-26 05:57 195 1 gusting 2 28.3
2016-Aug-26 05:47 171 28.9
2016-Aug-26 05:37 170 27.8
2016-Aug-26 05:27 170 3 gusting 3 26.7
2016-Aug-26 05:17 093 26.1
2016-Aug-26 05:07 094 26.1
2016-Aug-26 04:57 093 26.1
2016-Aug-26 04:47 094 2 gusting 2 25.6
2016-Aug-26 04:37 094 2 gusting 3 25.6
2016-Aug-26 04:27 093 0 gusting 2 25.6
2016-Aug-26 04:17 094 25.6
2016-Aug-26 04:07 094 2 25.6
2016-Aug-26 03:57 094 25.6
2016-Aug-26 03:47 094 3 gusting 2 25.6
2016-Aug-26 03:37 094 26.1
2016-Aug-26 03:27 108 2 gusting 3 26.1
2016-Aug-26 03:17 108 2 gusting 2 26.1
2016-Aug-26 03:07 057 26.1
2016-Aug-26 02:57 057 26.1
2016-Aug-26 02:47 047 26.1
2016-Aug-26 02:37 047 26.1
2016-Aug-26 02:27 041 2 gusting 2 26.1
2016-Aug-26 02:17 024 3 gusting 5 26.1
2016-Aug-26 02:07 358 3 gusting 4 26.1
2016-Aug-26 01:57 357 2 gusting 2 26.1
2016-Aug-26 01:47 312 26.1
2016-Aug-26 01:38 219 26.1
2016-Aug-26 01:28 219 3 gusting 3 26.1
2016-Aug-26 01:18 218 3 gusting 3 26.7
2016-Aug-26 01:08 245 26.7
2016-Aug-26 00:58 230 2 gusting 2 26.7
2016-Aug-26 00:48 274 2 gusting 3 26.7
2016-Aug-26 00:38 223 26.7
2016-Aug-26 00:28 181 3 gusting 5 26.7
2016-Aug-26 00:18 105 2 gusting 5 26.7
2016-Aug-26 00:08 142 5 gusting 8 26.7
2016-Aug-25 23:58 055 3 gusting 5 26.7
2016-Aug-25 23:48 084 3 gusting 7 26.7
2016-Aug-25 23:38 075 6 gusting 5 26.7
2016-Aug-25 23:28 063 3 gusting 7 26.7
2016-Aug-25 23:18 127 4 gusting 5 27.2
2016-Aug-25 23:08 082 4 gusting 6 27.2
2016-Aug-25 22:58 090 5 gusting 6 27.2
2016-Aug-25 22:48 107 2 gusting 3 27.2
2016-Aug-25 22:38 115 27.2
2016-Aug-25 22:28 091 27.8
2016-Aug-25 22:18 091 27.8
2016-Aug-25 22:08 091 27.8
2016-Aug-25 21:58 091 27.8
2016-Aug-25 21:48 091 27.8
2016-Aug-25 21:38 092 27.8
2016-Aug-25 21:28 092 27.8
2016-Aug-25 21:18 112 27.8
2016-Aug-25 21:08 126 27.8
2016-Aug-25 20:58 239 27.8
2016-Aug-25 20:48 239 2 gusting 2 28.3
2016-Aug-25 20:38 073 28.3
2016-Aug-25 20:28 072 28.3
2016-Aug-25 20:18 073 28.3
2016-Aug-25 20:08 072 28.3
2016-Aug-25 19:58 072 28.9
2016-Aug-25 19:48 073 28.9
2016-Aug-25 19:38 073 28.9
2016-Aug-25 19:28 073 28.9
2016-Aug-25 19:18 072 2 gusting 3 28.9
2016-Aug-25 19:08 097 2 gusting 2 28.9
2016-Aug-25 18:58 095 28.9
2016-Aug-25 18:48 093 28.9
2016-Aug-25 18:38 098 2 gusting 3 28.9
2016-Aug-25 18:28 228 28.9
2016-Aug-25 18:18 228 28.9
2016-Aug-25 18:08 228 28.3